M I D A S
Marine Information and Data Acquisition System
Tripno 1763 of the Zeeleeuw from 2009-07-13 06:44:58 to 2009-07-13 15:15:57
Back to CruiseResearch ActivitiesStationsMapUnderway DataData graphs

EquipmentUnitsComments
TimeDGPSUTC
LatitudeDGPSDM.mWGS84
LongitudeDGPSDM.mWGS84
SpeedMeteo Stationm/sRelative wind speed
DirectionMeteo StationdegRelative wind direction
TemperatureMeteo Stationdeg CelciusAir temperature
PressureMeteo StationPaAtmospheric pressure
HumidityMeteo Station%Relative humidity
Missing or incorrect values are displayed as -999
Metereological data collected by the RV Zeeleeuw from 2009-07-13 06:47:44 to 2009-07-13 15:25:07
Time Latitude Longitude Speed Direction Temperature Pressure Humidity
2009-07-13 06:48 51°13.675 2°55.905 3.8 31 15.5 101140 91
2009-07-13 06:49 51°13.691 2°55.818 2.6 44 15.6 101140 90
2009-07-13 06:50 51°13.694 2°55.75 5.5 44 15.6 101140 89
2009-07-13 06:51 51°13.701 2°55.736 1.7 81 15.7 101140 89
2009-07-13 06:52 51°13.74 2°55.728 2.3 286 15.8 101140 89
2009-07-13 06:53 51°13.823 2°55.64 3.1 284 15.9 101130 89
2009-07-13 06:54 51°13.948 2°55.536 2.4 286 16 101120 88
2009-07-13 06:55 51°14.09 2°55.432 2.9 285 16.1 101120 87
2009-07-13 06:56 51°14.226 2°55.308 4.6 278 16.1 101120 87
2009-07-13 06:57 51°14.332 2°55.119 4.7 284 16.1 101110 85
2009-07-13 06:58 51°14.441 2°54.912 6.7 278 16.1 101110 84
2009-07-13 06:59 51°14.585 2°54.749 6 284 16.2 101120 86
2009-07-13 07:00 51°14.748 2°54.588 7 278 16.2 101120 86
2009-07-13 07:01 51°14.913 2°54.425 7 282 16.3 101120 87
2009-07-13 07:02 51°15.076 2°54.267 7.7 278 16.3 101120 86
2009-07-13 07:03 51°15.237 2°54.105 8 285 16.3 101130 87
2009-07-13 07:04 51°15.399 2°53.948 7.4 278 16.4 101130 86
2009-07-13 07:05 51°15.56 2°53.789 6.6 283 16.4 101130 86
2009-07-13 07:06 51°15.724 2°53.624 9.4 280 16.4 101130 86
2009-07-13 07:07 51°15.893 2°53.461 8.9 283 16.4 101120 85
2009-07-13 07:08 51°16.062 2°53.297 7.7 280 16.5 101120 85
2009-07-13 07:09 51°16.237 2°53.143 8.3 285 16.6 101130 85
2009-07-13 07:10 51°16.415 2°53 6.6 282 16.7 101130 83
2009-07-13 07:11 51°16.596 2°52.87 8.6 282 16.7 101120 83
2009-07-13 07:12 51°16.779 2°52.746 9.3 282 16.7 101130 83
2009-07-13 07:13 51°16.963 2°52.631 6.7 280 16.7 101140 83
2009-07-13 07:14 51°17.155 2°52.562 7.4 285 16.8 101130 82
2009-07-13 07:15 51°17.347 2°52.509 9.1 285 16.9 101130 83
2009-07-13 07:16 51°17.541 2°52.459 7.4 286 17 101130 82
2009-07-13 07:17 51°17.736 2°52.418 7.4 283 17 101140 84
2009-07-13 07:18 51°17.932 2°52.379 7.5 285 17 101140 83
2009-07-13 07:19 51°18.129 2°52.367 6.2 281 17 101140 82
2009-07-13 07:20 51°18.325 2°52.358 7.8 283 17 101130 83
2009-07-13 07:21 51°18.521 2°52.368 5.9 285 17 101140 83
2009-07-13 07:22 51°18.709 2°52.453 3.3 281 17 101140 82
2009-07-13 07:23 51°18.897 2°52.552 5.5 279 17 101150 83
2009-07-13 07:24 51°19.086 2°52.648 3.5 283 16.9 101150 81
2009-07-13 07:25 51°19.275 2°52.74 2.5 280 16.8 101150 83
2009-07-13 07:26 51°19.465 2°52.828 3.4 281 16.9 101150 84
2009-07-13 07:27 51°19.653 2°52.914 4.1 285 16.8 101140 83
2009-07-13 07:28 51°19.841 2°52.998 5.1 280 16.8 101150 83
2009-07-13 07:29 51°20.028 2°53.089 4.4 278 16.7 101150 83
2009-07-13 07:30 51°20.215 2°53.186 4.3 283 16.7 101150 84
2009-07-13 07:31 51°20.402 2°53.282 2.3 282 16.7 101150 84
2009-07-13 07:32 51°20.587 2°53.38 5 277 16.8 101160 86
2009-07-13 07:33 51°20.772 2°53.48 2.8 280 16.8 101140 85
2009-07-13 07:34 51°20.956 2°53.576 2.9 279 16.7 101160 84
2009-07-13 07:35 51°21.14 2°53.672 3.4 284 16.8 101150 83
2009-07-13 07:36 51°21.323 2°53.766 4 279 16.8 101140 83
2009-07-13 07:37 51°21.508 2°53.859 4.7 280 16.8 101150 83
2009-07-13 07:38 51°21.689 2°53.969 3.9 283 16.8 101140 84
2009-07-13 07:39 51°21.865 2°54.102 3 284 16.8 101140 84
2009-07-13 07:40 51°22.041 2°54.232 4.2 79 16.9 101140 84
2009-07-13 07:41 51°22.215 2°54.372 2.1 282 16.9 101140 85
2009-07-13 07:42 51°22.38 2°54.533 1.7 282 17 101140 85
2009-07-13 07:43 51°22.538 2°54.711 3.1 83 17 101140 85
2009-07-13 07:44 51°22.702 2°54.878 2.2 285 16.9 101140 84
2009-07-13 07:45 51°22.868 2°55.038 2.6 279 16.9 101150 84
2009-07-13 07:46 51°23.036 2°55.2 2.3 278 16.9 101140 84
2009-07-13 07:47 51°23.203 2°55.364 1.8 278 17 101140 85
2009-07-13 07:48 51°23.369 2°55.53 2.4 285 17.1 101140 83
2009-07-13 07:49 51°23.537 2°55.692 2.4 279 17.1 101140 83
2009-07-13 07:50 51°23.705 2°55.853 2 281 17 101140 82
2009-07-13 07:51 51°23.873 2°56.013 1.8 279 17.1 101140 84
2009-07-13 07:52 51°24.043 2°56.176 2.8 280 17 101140 82
2009-07-13 07:53 51°24.212 2°56.337 2.6 280 17 101140 82
2009-07-13 07:54 51°24.381 2°56.501 2.6 73 17.1 101150 83
2009-07-13 07:55 51°24.547 2°56.665 2.6 78 17 101140 82
2009-07-13 07:56 51°24.715 2°56.83 2.5 75 17 101140 83
2009-07-13 07:57 51°24.882 2°56.989 3.1 80 17 101130 83
2009-07-13 07:58 51°25.049 2°57.147 2.1 76 17 101150 82
2009-07-13 07:59 51°25.214 2°57.307 1.6 284 17 101130 84
2009-07-13 08:00 51°25.381 2°57.47 3.5 80 17.1 101150 85
2009-07-13 08:01 51°25.548 2°57.626 3.4 74 17.1 101160 84
2009-07-13 08:02 51°25.716 2°57.783 2.8 82 17.2 101150 84
2009-07-13 08:03 51°25.881 2°57.939 2.9 84 17.1 101160 83
2009-07-13 08:04 51°26.046 2°58.093 3.3 81 17.1 101160 83
2009-07-13 08:05 51°26.206 2°58.237 3.8 76 17 101160 83
2009-07-13 08:06 51°26.3 2°58.318 7.4 81 17.1 101140 85
2009-07-13 08:07 51°26.364 2°58.37 5.3 80 16.8 101150 83
2009-07-13 08:08 51°26.419 2°58.409 6.2 80 16.8 101150 84
2009-07-13 08:09 51°26.471 2°58.445 6.8 77 16.8 101150 86
2009-07-13 08:10 51°26.522 2°58.479 7.3 74 16.7 101150 85
2009-07-13 08:11 51°26.571 2°58.514 6.4 79 16.6 101140 85
2009-07-13 08:12 51°26.621 2°58.549 6.8 82 16.6 101140 85
2009-07-13 08:13 51°26.67 2°58.583 7.9 74 16.6 101150 87
2009-07-13 08:14 51°26.718 2°58.616 5.6 83 16.5 101140 86
2009-07-13 08:15 51°26.766 2°58.65 6.1 82 16.6 101140 87
2009-07-13 08:16 51°26.815 2°58.684 4.1 82 16.6 101150 87
2009-07-13 08:17 51°26.865 2°58.72 7.4 78 16.7 101150 87
2009-07-13 08:18 51°26.913 2°58.755 6.8 82 16.6 101150 86
2009-07-13 08:19 51°26.963 2°58.783 7.3 80 16.6 101140 86
2009-07-13 08:20 51°27.01 2°58.784 8.7 283 16.7 101140 88
2009-07-13 08:21 51°27.048 2°58.776 8.3 281 16.7 101140 86
2009-07-13 08:22 51°27.08 2°58.765 8.6 286 16.7 101130 85
2009-07-13 08:23 51°27.107 2°58.753 7.2 277 16.7 101140 85
2009-07-13 08:24 51°27.13 2°58.741 6.1 284 16.6 101140 85
2009-07-13 08:25 51°27.149 2°58.734 6.7 280 16.7 101140 85
2009-07-13 08:26 51°27.166 2°58.731 7.1 285 16.7 101140 87
2009-07-13 08:27 51°27.181 2°58.731 6.7 284 16.7 101160 86
2009-07-13 08:28 51°27.194 2°58.733 6.8 284 16.8 101150 85
2009-07-13 08:29 51°27.207 2°58.736 6.1 279 16.8 101150 86
2009-07-13 08:30 51°27.218 2°58.74 5.1 277 16.9 101150 86
2009-07-13 08:31 51°27.228 2°58.742 6.1 284 16.9 101140 86
2009-07-13 08:32 51°27.235 2°58.745 7.1 279 16.9 101140 85
2009-07-13 08:33 51°27.243 2°58.747 7 279 16.9 101150 85
2009-07-13 08:34 51°27.249 2°58.749 7.5 286 16.9 101140 86
2009-07-13 08:35 51°27.257 2°58.752 7.2 75 16.8 101140 85
2009-07-13 08:36 51°27.265 2°58.752 6.8 278 16.9 101150 87
2009-07-13 08:37 51°27.273 2°58.752 5.2 282 16.9 101150 85
2009-07-13 08:38 51°27.295 2°58.746 8.6 85 16.9 101150 85
2009-07-13 08:39 51°27.369 2°58.761 4.1 77 16.9 101150 84
2009-07-13 08:40 51°27.401 2°58.881 6.5 21 16.8 101160 76
2009-07-13 08:41 51°27.399 2°59.008 4 42 16.9 101160 85
2009-07-13 08:42 51°27.463 2°59.116 4.9 81 17 101160 79
2009-07-13 08:43 51°27.501 2°59.258 5 23 17 101160 84
2009-07-13 08:44 51°27.5 2°59.404 7.6 20 17 101160 81
2009-07-13 08:45 51°27.482 2°59.529 7.6 27 17 101170 71
2009-07-13 08:46 51°27.466 2°59.653 9.1 19 17 101180 81
2009-07-13 08:47 51°27.438 2°59.768 7.7 24 17.1 101170 85
2009-07-13 08:48 51°27.425 2°59.893 6.3 28 17 101180 83
2009-07-13 08:49 51°27.405 3°0.007 8.7 28 17.1 101170 85
2009-07-13 08:50 51°27.391 3°0.074 7 28 17 101170 77
2009-07-13 08:51 51°27.384 3°0.104 8.4 17 17 101170 84
2009-07-13 08:52 51°27.386 3°0.103 7.3 22 17 101160 83
2009-07-13 08:53 51°27.414 3°0.063 7.7 30 17 101170 83
2009-07-13 08:54 51°27.436 3°0.012 8.2 34 17.1 101170 85
2009-07-13 08:55 51°27.449 2°59.978 8.2 32 17.1 101160 83
2009-07-13 08:56 51°27.458 2°59.954 7.5 40 17.1 101160 86
2009-07-13 08:57 51°27.467 2°59.936 8.4 33 17.1 101160 84
2009-07-13 08:58 51°27.476 2°59.919 9.3 34 17 101160 83
2009-07-13 08:59 51°27.483 2°59.936 6.6 40 17 101150 84
2009-07-13 09:00 51°27.494 3°0.032 6 31 17 101150 83
2009-07-13 09:01 51°27.516 3°0.18 5.3 82 17.1 101160 82
2009-07-13 09:02 51°27.585 3°0.281 5.3 81 17.2 101150 83
2009-07-13 09:03 51°27.634 3°0.387 3.3 82 17.3 101160 81
2009-07-13 09:04 51°27.672 3°0.478 7 26 17.4 101160 80
2009-07-13 09:05 51°27.634 3°0.534 10.2 352 17.4 101160 81
2009-07-13 09:06 51°27.567 3°0.478 10.9 279 17.3 101120 81
2009-07-13 09:07 51°27.485 3°0.369 12 280 17.4 101130 82
2009-07-13 09:08 51°27.418 3°0.227 12.2 277 17.3 101120 80
2009-07-13 09:09 51°27.353 3°0.068 12.2 281 17.3 101120 80
2009-07-13 09:10 51°27.287 2°59.916 11.7 281 17.3 101120 78
2009-07-13 09:11 51°27.196 2°59.837 9.7 353 17.3 101120 79
2009-07-13 09:12 51°27.112 2°59.873 8.9 15 17.2 101130 77
2009-07-13 09:13 51°27.097 2°59.937 6.7 80 17.3 101160 82
2009-07-13 09:14 51°27.12 2°59.974 4.1 77 17.2 101160 80
2009-07-13 09:15 51°27.154 3°0.004 6 75 17.5 101150 79
2009-07-13 09:16 51°27.196 3°0.03 5.4 80 17.4 101150 78
2009-07-13 09:17 51°27.242 3°0.051 6.4 78 17.5 101150 80
2009-07-13 09:18 51°27.286 3°0.078 6 81 17.4 101150 80
2009-07-13 09:19 51°27.329 3°0.111 6.1 75 17.4 101160 81
2009-07-13 09:20 51°27.371 3°0.145 5.5 81 17.4 101150 82
2009-07-13 09:21 51°27.416 3°0.194 4.3 82 17.2 101150 80
2009-07-13 09:22 51°27.456 3°0.261 5.2 81 17.3 101160 80
2009-07-13 09:23 51°27.5 3°0.332 5.3 75 17.4 101160 79
2009-07-13 09:24 51°27.544 3°0.401 4.7 79 17.3 101160 80
2009-07-13 09:25 51°27.59 3°0.469 2.7 80 17.3 101150 81
2009-07-13 09:26 51°27.636 3°0.534 5.8 81 17.5 101150 81
2009-07-13 09:27 51°27.689 3°0.586 5.9 79 17.4 101150 79
2009-07-13 09:28 51°27.748 3°0.575 7.4 279 17.5 101140 80
2009-07-13 09:29 51°27.792 3°0.506 9.1 278 17.6 101140 81
2009-07-13 09:30 51°27.813 3°0.408 9.8 277 17.8 101140 79
2009-07-13 09:31 51°27.796 3°0.316 9.9 278 17.8 101130 79
2009-07-13 09:32 51°27.747 3°0.254 9.2 278 17.8 101130 78
2009-07-13 09:33 51°27.685 3°0.227 10.5 351 17.6 101130 78
2009-07-13 09:34 51°27.622 3°0.186 10.5 278 17.5 101120 75
2009-07-13 09:35 51°27.569 3°0.125 10.7 281 17.6 101120 75
2009-07-13 09:36 51°27.521 3°0.05 9.6 281 17.7 101130 75
2009-07-13 09:37 51°27.47 2°59.981 10.3 278 17.7 101120 72
2009-07-13 09:38 51°27.418 2°59.923 11.7 284 17.7 101130 73
2009-07-13 09:39 51°27.37 2°59.859 8.3 281 17.7 101140 74
2009-07-13 09:40 51°27.323 2°59.788 11.7 279 17.8 101140 76
2009-07-13 09:41 51°27.274 2°59.718 10.9 277 17.8 101140 74
2009-07-13 09:42 51°27.225 2°59.649 10.7 276 17.8 101140 73
2009-07-13 09:43 51°27.176 2°59.592 9.4 280 17.7 101140 71
2009-07-13 09:44 51°27.122 2°59.577 8.9 13 17.6 101130 71
2009-07-13 09:45 51°27.088 2°59.637 5.1 38 17.7 101150 75
2009-07-13 09:46 51°27.113 2°59.707 5.3 81 17.7 101160 76
2009-07-13 09:47 51°27.162 2°59.772 4.1 82 17.6 101160 72
2009-07-13 09:48 51°27.213 2°59.848 2.9 83 17.6 101160 73
2009-07-13 09:49 51°27.256 2°59.935 3.8 81 18 101160 75
2009-07-13 09:50 51°27.307 3°0.018 3.3 76 18.2 101170 70
2009-07-13 09:51 51°27.352 3°0.101 2.3 74 18.2 101160 71
2009-07-13 09:52 51°27.399 3°0.182 3.5 79 18.4 101150 70
2009-07-13 09:53 51°27.448 3°0.265 2.7 84 18.6 101150 71
2009-07-13 09:54 51°27.492 3°0.352 3.2 77 18.8 101150 69
2009-07-13 09:55 51°27.532 3°0.441 4 75 18.6 101150 68
2009-07-13 09:56 51°27.572 3°0.529 3.2 76 18.4 101160 73
2009-07-13 09:57 51°27.614 3°0.615 2.4 77 18.4 101160 75
2009-07-13 09:58 51°27.671 3°0.638 4.6 282 18.3 101170 73
2009-07-13 09:59 51°27.719 3°0.566 8.4 283 18.3 101170 75
2009-07-13 10:00 51°27.728 3°0.45 10.6 283 18.2 101150 73
2009-07-13 10:01 51°27.685 3°0.341 7.6 286 18.2 101130 74
2009-07-13 10:02 51°27.612 3°0.295 8.2 280 18 101140 73
2009-07-13 10:03 51°27.547 3°0.271 7.4 346 17.7 101140 73
2009-07-13 10:04 51°27.493 3°0.228 8.4 281 17.8 101150 77
2009-07-13 10:05 51°27.45 3°0.165 6.5 278 17.8 101140 74
2009-07-13 10:06 51°27.413 3°0.094 7.8 285 17.9 101150 75
2009-07-13 10:07 51°27.378 3°0.023 8.5 280 17.8 101150 73
2009-07-13 10:08 51°27.342 2°59.946 8.8 278 17.9 101140 75
2009-07-13 10:09 51°27.3 2°59.878 6.8 283 17.9 101150 75
2009-07-13 10:10 51°27.258 2°59.808 8.8 282 17.9 101140 76
2009-07-13 10:11 51°27.219 2°59.733 6.6 286 17.9 101140 76
2009-07-13 10:12 51°27.179 2°59.655 9.1 277 18 101150 77
2009-07-13 10:13 51°27.137 2°59.579 7.1 283 17.9 101140 74
2009-07-13 10:14 51°27.091 2°59.515 8.3 282 18 101140 75
2009-07-13 10:15 51°27.04 2°59.496 6.1 6 17.9 101130 75
2009-07-13 10:16 51°26.99 2°59.549 4.6 31 17.7 101140 75
2009-07-13 10:17 51°26.998 2°59.638 2.6 80 17.8 101150 75
2009-07-13 10:18 51°27.047 2°59.706 3.9 83 17.8 101150 74
2009-07-13 10:19 51°27.104 2°59.761 4.2 75 18 101160 75
2009-07-13 10:20 51°27.155 2°59.815 4.2 75 18 101160 74
2009-07-13 10:21 51°27.204 2°59.868 4.3 75 18 101160 74
2009-07-13 10:22 51°27.25 2°59.93 3.6 77 17.9 101160 73
2009-07-13 10:23 51°27.292 2°59.999 3.7 76 18 101150 74
2009-07-13 10:24 51°27.338 3°0.064 2.7 74 18 101150 73
2009-07-13 10:25 51°27.377 3°0.138 2.9 84 17.9 101160 73
2009-07-13 10:26 51°27.417 3°0.212 2.5 82 18.1 101160 74
2009-07-13 10:27 51°27.457 3°0.285 2.5 80 18.4 101160 72
2009-07-13 10:28 51°27.498 3°0.357 3.7 75 18.5 101150 72
2009-07-13 10:29 51°27.534 3°0.433 1.8 76 18.4 101150 71
2009-07-13 10:30 51°27.553 3°0.527 3 78 18.2 101150 72
2009-07-13 10:31 51°27.569 3°0.623 3.2 81 18.2 101140 72
2009-07-13 10:32 51°27.588 3°0.716 2.7 76 18.1 101140 72
2009-07-13 10:33 51°27.607 3°0.81 3.5 76 18.1 101140 72
2009-07-13 10:34 51°27.628 3°0.903 3.2 76 18 101140 67
2009-07-13 10:35 51°27.649 3°0.993 2.3 77 18 101140 67
2009-07-13 10:36 51°27.689 3°1.032 4.7 278 18.1 101150 73
2009-07-13 10:37 51°27.733 3°0.967 6.9 277 18.1 101150 74
2009-07-13 10:38 51°27.75 3°0.848 6.9 277 18.2 101140 72
2009-07-13 10:39 51°27.74 3°0.707 6.8 279 18.2 101140 72
2009-07-13 10:40 51°27.702 3°0.564 8.2 278 18.3 101130 74
2009-07-13 10:41 51°27.648 3°0.427 7.1 279 18.2 101130 72
2009-07-13 10:42 51°27.58 3°0.294 9.6 286 18.2 101140 73
2009-07-13 10:43 51°27.503 3°0.174 8.4 277 18.2 101140 74
2009-07-13 10:44 51°27.421 3°0.062 9.4 282 18.2 101130 74
2009-07-13 10:45 51°27.339 2°59.951 9 285 18.2 101130 73
2009-07-13 10:46 51°27.258 2°59.838 7.3 282 18.2 101120 72
2009-07-13 10:47 51°27.181 2°59.718 8.1 284 18.2 101130 73
2009-07-13 10:48 51°27.124 2°59.582 9.7 280 18.1 101130 73
2009-07-13 10:49 51°27.078 2°59.441 9.7 283 18.1 101120 73
2009-07-13 10:50 51°26.998 2°59.365 7.1 357 18.1 101140 72
2009-07-13 10:51 51°26.925 2°59.391 5.4 22 18 101130 75
2009-07-13 10:52 51°26.901 2°59.464 3.1 75 18 101140 76
2009-07-13 10:53 51°26.93 2°59.507 4.1 84 17.9 101140 74
2009-07-13 10:54 51°26.971 2°59.548 4.2 82 18 101130 74
2009-07-13 10:55 51°27.014 2°59.601 3.3 84 18 101130 74
2009-07-13 10:56 51°27.055 2°59.658 2.8 82 18 101130 74
2009-07-13 10:57 51°27.093 2°59.721 2.5 82 18 101130 74
2009-07-13 10:58 51°27.133 2°59.782 3.8 81 18.1 101120 76
2009-07-13 10:59 51°27.176 2°59.837 2.8 83 18.1 101120 74
2009-07-13 11:00 51°27.217 2°59.892 3.8 82 18.2 101130 75
2009-07-13 11:01 51°27.26 2°59.949 3 83 18.1 101130 68
2009-07-13 11:02 51°27.3 3°0.005 2 75 18.2 101130 74
2009-07-13 11:03 51°27.338 3°0.065 2.5 80 18.2 101130 74
2009-07-13 11:04 51°27.376 3°0.123 2.2 82 18.2 101130 75
2009-07-13 11:05 51°27.423 3°0.139 6.2 277 18.3 101130 76
2009-07-13 11:06 51°27.464 3°0.071 6.5 285 18.3 101130 75
2009-07-13 11:07 51°27.48 2°59.922 7.6 284 18.4 101120 74
2009-07-13 11:08 51°27.39 2°59.733 8.6 281 18.4 101110 73
2009-07-13 11:09 51°27.292 2°59.702 5.7 16 18.2 101110 73
2009-07-13 11:10 51°27.238 2°59.804 2.2 77 18.1 101110 73
2009-07-13 11:11 51°27.271 2°59.851 4 82 18.1 101130 74
2009-07-13 11:12 51°27.299 2°59.91 3.4 76 18.1 101130 73
2009-07-13 11:13 51°27.322 2°59.978 3.6 79 18.1 101130 72
2009-07-13 11:14 51°27.341 3°0.016 3.6 81 18 101130 72
2009-07-13 11:15 51°27.357 3°0.041 3.1 76 18 101130 72
2009-07-13 11:16 51°27.371 3°0.051 5.2 82 18.1 101130 73
2009-07-13 11:17 51°27.355 3°0.028 4.8 80 18.1 101130 73
2009-07-13 11:18 51°27.347 3°0.021 2.8 78 18.1 101130 73
2009-07-13 11:19 51°27.364 3°0.053 2 80 18.1 101130 73
2009-07-13 11:20 51°27.374 3°0.073 3.7 74 18.2 101120 73
2009-07-13 11:21 51°27.365 3°0.068 4 76 18.2 101130 73
2009-07-13 11:22 51°27.346 3°0.044 2.5 74 18.3 101120 75
2009-07-13 11:23 51°27.327 3°0.021 3.7 84 18.5 101130 72
2009-07-13 11:24 51°27.312 3°0.01 3.7 83 18.3 101130 71
2009-07-13 11:25 51°27.311 3°0.005 4 79 18.3 101120 73
2009-07-13 11:26 51°27.32 3°0 4 82 18.3 101120 72
2009-07-13 11:27 51°27.331 3°0.004 4 75 18.3 101120 72
2009-07-13 11:28 51°27.338 3°0.005 3.9 76 18.3 101120 72
2009-07-13 11:29 51°27.337 3°0.004 3.8 83 18.3 101130 72
2009-07-13 11:30 51°27.334 3°0.002 3.7 77 18.4 101120 74
2009-07-13 11:31 51°27.337 3°0.002 3.6 80 18.3 101120 71
2009-07-13 11:32 51°27.345 3°0.011 4.1 76 18.3 101120 72
2009-07-13 11:33 51°27.354 3°0.026 3.7 83 18.3 101120 71
2009-07-13 11:34 51°27.365 3°0.045 4.5 81 18.2 101120 72
2009-07-13 11:35 51°27.378 3°0.058 3.8 82 18.3 101120 71
2009-07-13 11:36 51°27.383 3°0.053 3.1 281 18.3 101120 72
2009-07-13 11:37 51°27.38 3°0.039 4 281 18.4 101120 66
2009-07-13 11:38 51°27.379 3°0.026 3.9 83 18.4 101120 71
2009-07-13 11:39 51°27.378 3°0.024 4.2 83 18.4 101120 71
2009-07-13 11:40 51°27.38 3°0.021 3.7 82 18.4 101110 72
2009-07-13 11:41 51°27.384 3°0.01 3.7 279 18.3 101110 72
2009-07-13 11:42 51°27.381 2°59.988 3.3 283 18.4 101110 74
2009-07-13 11:43 51°27.374 2°59.962 3.2 278 18.4 101110 72
2009-07-13 11:44 51°27.361 2°59.935 5.5 279 18.5 101110 72
2009-07-13 11:45 51°27.365 2°59.881 5.6 284 18.6 101110 66
2009-07-13 11:46 51°27.333 2°59.767 5.3 279 18.6 101110 71
2009-07-13 11:47 51°27.279 2°59.713 4.4 3 18.4 101100 73
2009-07-13 11:48 51°27.234 2°59.683 4.3 6 18.2 101100 75
2009-07-13 11:49 51°27.195 2°59.657 4.4 7 18.1 101110 76
2009-07-13 11:50 51°27.161 2°59.632 4.2 6 18 101110 75
2009-07-13 11:51 51°27.13 2°59.607 3.6 4 18 101100 73
2009-07-13 11:52 51°27.101 2°59.583 3.9 3 18 101100 75
2009-07-13 11:53 51°27.075 2°59.561 3.8 5 18 101110 76
2009-07-13 11:54 51°27.05 2°59.54 3.7 7 17.9 101100 76
2009-07-13 11:55 51°27.027 2°59.521 3.5 15 17.9 101100 77
2009-07-13 11:56 51°27.004 2°59.501 4.4 23 18.1 101100 78
2009-07-13 11:57 51°26.982 2°59.481 4.1 21 18.1 101100 76
2009-07-13 11:58 51°26.96 2°59.462 4.1 26 18.2 101100 76
2009-07-13 11:59 51°26.939 2°59.442 3.6 27 18.1 101100 74
2009-07-13 12:00 51°26.918 2°59.422 3.5 23 18.2 101100 75
2009-07-13 12:01 51°26.896 2°59.4 3.7 29 18.3 101100 74
2009-07-13 12:02 51°26.875 2°59.38 4.2 35 18.3 101100 74
2009-07-13 12:03 51°26.854 2°59.361 3.7 34 18.3 101100 74
2009-07-13 12:04 51°26.831 2°59.344 3.7 33 18.3 101100 75
2009-07-13 12:05 51°26.801 2°59.334 3.6 33 18.3 101100 75
2009-07-13 12:06 51°26.772 2°59.322 3.9 33 18.3 101090 76
2009-07-13 12:07 51°26.745 2°59.307 2.9 28 18.3 101090 76
2009-07-13 12:08 51°26.711 2°59.329 1.1 81 18.3 101090 76
2009-07-13 12:09 51°26.729 2°59.373 3.1 278 18.3 101090 76
2009-07-13 12:10 51°26.788 2°59.432 2.8 285 18.4 101090 76
2009-07-13 12:11 51°26.861 2°59.505 3.6 278 18.6 101080 76
2009-07-13 12:12 51°26.941 2°59.575 3.6 280 18.6 101080 75
2009-07-13 12:13 51°27.029 2°59.667 3.6 280 18.7 101080 75
2009-07-13 12:14 51°27.127 2°59.784 3.4 284 18.7 101080 74
2009-07-13 12:15 51°27.225 2°59.9 3.3 279 18.6 101080 74
2009-07-13 12:16 51°27.329 3°0.013 3.3 283 18.6 101080 74
2009-07-13 12:17 51°27.403 3°0.082 1.9 278 18.6 101080 73
2009-07-13 12:18 51°27.423 3°0.088 2.1 284 18.5 101080 74
2009-07-13 12:19 51°27.419 3°0.063 3.1 277 18.5 101080 74
2009-07-13 12:20 51°27.39 3°0.027 2.9 77 18.6 101080 74
2009-07-13 12:21 51°27.356 2°59.982 2.9 76 18.5 101080 74
2009-07-13 12:22 51°27.33 2°59.947 2.7 82 18.4 101080 75
2009-07-13 12:23 51°27.31 2°59.92 3.1 78 18.4 101080 75
2009-07-13 12:24 51°27.292 2°59.894 3 85 18.3 101070 73
2009-07-13 12:25 51°27.275 2°59.868 2.7 289 18.2 101080 74
2009-07-13 12:26 51°27.259 2°59.844 2.2 278 18.2 101070 74
2009-07-13 12:27 51°27.242 2°59.817 1.8 278 18.4 101070 76
2009-07-13 12:28 51°27.225 2°59.792 1.8 276 18.5 101080 76
2009-07-13 12:29 51°27.208 2°59.767 2.4 278 18.6 101070 76
2009-07-13 12:30 51°27.189 2°59.742 3.1 286 18.7 101070 75
2009-07-13 12:31 51°27.172 2°59.717 2.7 279 18.7 101070 75
2009-07-13 12:32 51°27.153 2°59.693 2.9 282 18.8 101070 74
2009-07-13 12:33 51°27.135 2°59.669 2.3 279 18.9 101070 74
2009-07-13 12:34 51°27.116 2°59.646 2.2 279 18.9 101070 73
2009-07-13 12:35 51°27.095 2°59.623 1.9 285 18.8 101070 73
2009-07-13 12:36 51°27.075 2°59.599 2.8 277 18.8 101080 72
2009-07-13 12:37 51°27.054 2°59.576 2.3 277 18.9 101080 72
2009-07-13 12:38 51°27.033 2°59.552 2.5 282 18.9 101080 72
2009-07-13 12:39 51°27.013 2°59.53 2.3 277 18.9 101080 72
2009-07-13 12:40 51°26.993 2°59.507 2.6 280 18.9 101080 72
2009-07-13 12:41 51°26.988 2°59.487 3.6 277 18.9 101080 73
2009-07-13 12:42 51°27.02 2°59.485 3.5 280 18.9 101080 73
2009-07-13 12:43 51°27.068 2°59.525 2.6 281 18.9 101080 72
2009-07-13 12:44 51°27.107 2°59.595 2.8 279 18.9 101080 72
2009-07-13 12:45 51°27.151 2°59.665 2.5 283 19 101080 72
2009-07-13 12:46 51°27.192 2°59.739 1.8 275 19.1 101090 72
2009-07-13 12:47 51°27.233 2°59.817 2.2 284 19.1 101080 72
2009-07-13 12:48 51°27.275 2°59.89 2.3 278 19.2 101090 70
2009-07-13 12:49 51°27.316 2°59.966 2.1 286 19.3 101090 65
2009-07-13 12:50 51°27.354 3°0.034 1.8 281 19.4 101090 65
2009-07-13 12:51 51°27.387 3°0.103 1.1 279 19.4 101090 65
2009-07-13 12:52 51°27.424 3°0.168 2.2 276 19.5 101100 65
2009-07-13 12:53 51°27.459 3°0.234 1.4 282 19.6 101090 65
2009-07-13 12:54 51°27.471 3°0.311 1.4 278 19.7 101090 64
2009-07-13 12:55 51°27.49 3°0.381 0.9 285 19.7 101100 64
2009-07-13 12:56 51°27.523 3°0.446 1.7 283 19.7 101090 64
2009-07-13 12:57 51°27.555 3°0.514 1.6 278 19.8 101100 64
2009-07-13 12:58 51°27.59 3°0.582 2.2 279 19.8 101090 64
2009-07-13 12:59 51°27.641 3°0.587 4.3 279 19.7 101090 63
2009-07-13 13:00 51°27.677 3°0.503 5.4 282 19.6 101090 62
2009-07-13 13:01 51°27.662 3°0.379 4.9 283 19.4 101090 63
2009-07-13 13:02 51°27.601 3°0.267 4.9 279 18.9 101090 64
2009-07-13 13:03 51°27.526 3°0.152 4.4 349 18.5 101090 65
2009-07-13 13:04 51°27.445 3°0.053 4.9 352 18.3 101090 68
2009-07-13 13:05 51°27.36 2°59.951 4.8 282 18.1 101090 67
2009-07-13 13:06 51°27.298 2°59.819 5.4 285 18 101090 67
2009-07-13 13:07 51°27.245 2°59.677 5.9 280 18.1 101090 69
2009-07-13 13:08 51°27.184 2°59.546 4.1 352 18.1 101080 66
2009-07-13 13:09 51°27.099 2°59.494 4.1 11 18 101080 66
2009-07-13 13:10 51°27.031 2°59.53 1.8 30 18.1 101090 67
2009-07-13 13:11 51°27.015 2°59.602 2.1 286 18.1 101090 66
2009-07-13 13:12 51°27.041 2°59.659 2.9 277 18.3 101080 67
2009-07-13 13:13 51°27.091 2°59.71 3.6 285 18.6 101080 66
2009-07-13 13:14 51°27.146 2°59.767 2.8 278 18.7 101080 66
2009-07-13 13:15 51°27.201 2°59.831 2.6 276 18.8 101080 65
2009-07-13 13:16 51°27.256 2°59.896 2.6 281 18.9 101080 64
2009-07-13 13:17 51°27.305 2°59.961 2.8 276 19.1 101080 64
2009-07-13 13:18 51°27.351 3°0.025 1.7 277 19.2 101090 64
2009-07-13 13:19 51°27.39 3°0.098 2.5 280 19.3 101080 63
2009-07-13 13:20 51°27.423 3°0.183 2.2 283 19.4 101080 64
2009-07-13 13:21 51°27.456 3°0.272 1.7 277 19.5 101080 63
2009-07-13 13:22 51°27.491 3°0.359 2.7 278 19.5 101080 63
2009-07-13 13:23 51°27.519 3°0.455 2.3 277 19.5 101080 63
2009-07-13 13:24 51°27.535 3°0.553 1.4 275 19.6 101080 63
2009-07-13 13:25 51°27.583 3°0.594 3.8 278 19.7 101080 62
2009-07-13 13:26 51°27.641 3°0.551 5 277 19.6 101080 63
2009-07-13 13:27 51°27.669 3°0.442 5 284 19.4 101080 63
2009-07-13 13:28 51°27.641 3°0.313 4 279 19.2 101080 63
2009-07-13 13:29 51°27.565 3°0.234 3.2 353 18.9 101080 65
2009-07-13 13:30 51°27.485 3°0.148 4.4 352 18.6 101080 66
2009-07-13 13:31 51°27.416 3°0.036 4.5 349 18.3 101080 67
2009-07-13 13:32 51°27.362 2°59.938 4.1 279 18.2 101080 67
2009-07-13 13:33 51°27.314 2°59.842 3.7 276 18.1 101080 67
2009-07-13 13:34 51°27.27 2°59.75 4.2 284 18 101080 67
2009-07-13 13:35 51°27.227 2°59.655 2.9 278 18 101080 66
2009-07-13 13:36 51°27.155 2°59.641 0.8 5 18 101080 66
2009-07-13 13:37 51°27.161 2°59.744 3.2 283 18.1 101080 68
2009-07-13 13:38 51°27.247 2°59.848 3.1 278 18.1 101080 72
2009-07-13 13:39 51°27.31 2°59.931 3 278 18.2 101080 74
2009-07-13 13:40 51°27.348 2°59.988 3.2 286 18.3 101080 74
2009-07-13 13:41 51°27.372 3°0.023 2.7 279 18.4 101080 73
2009-07-13 13:42 51°27.392 3°0.051 1.6 276 18.5 101070 74
2009-07-13 13:43 51°27.412 3°0.073 2.4 282 18.5 101080 74
2009-07-13 13:44 51°27.415 3°0.079 2 279 18.7 101080 74
2009-07-13 13:45 51°27.413 3°0.083 2 278 18.8 101080 74
2009-07-13 13:46 51°27.41 3°0.082 1.9 280 18.9 101070 73
2009-07-13 13:47 51°27.403 3°0.081 2 280 19 101070 73
2009-07-13 13:48 51°27.395 3°0.078 1.7 83 19 101070 72
2009-07-13 13:49 51°27.386 3°0.074 1.7 80 18.9 101070 70
2009-07-13 13:50 51°27.376 3°0.069 2.7 87 18.9 101070 71
2009-07-13 13:51 51°27.366 3°0.065 2.3 81 18.9 101070 71
2009-07-13 13:52 51°27.347 3°0.095 0.3 81 18.9 101070 71
2009-07-13 13:53 51°27.243 3°0.091 4.1 350 18.9 101070 69
2009-07-13 13:54 51°27.076 2°59.99 7.5 278 18.7 101060 71
2009-07-13 13:55 51°26.893 2°59.849 5.7 279 18.5 101060 73
2009-07-13 13:56 51°26.705 2°59.709 7 278 18.4 101060 74
2009-07-13 13:57 51°26.578 2°59.483 6.5 340 18.3 101060 75
2009-07-13 13:58 51°26.487 2°59.326 3.3 352 18.3 101060 74
2009-07-13 13:59 51°26.44 2°59.231 3.8 349 18.3 101060 75
2009-07-13 14:00 51°26.388 2°59.148 3 359 18.1 101060 74
2009-07-13 14:01 51°26.339 2°59.1 1.5 5 18.1 101060 76
2009-07-13 14:02 51°26.301 2°59.071 1.3 10 18.2 101050 78
2009-07-13 14:03 51°26.269 2°59.05 1.4 15 18.2 101060 76
2009-07-13 14:04 51°26.241 2°59.031 0.8 21 18.3 101060 75
2009-07-13 14:05 51°26.184 2°58.995 2.8 348 18.4 101050 75
2009-07-13 14:06 51°26.049 2°58.932 4.9 343 18.3 101050 74
2009-07-13 14:07 51°25.863 2°58.834 4.6 282 18.3 101050 75
2009-07-13 14:08 51°25.695 2°58.643 6.6 339 18.3 101040 75
2009-07-13 14:09 51°25.537 2°58.439 5.5 281 18.3 101040 74
2009-07-13 14:10 51°25.38 2°58.24 5 341 18.3 101030 75
2009-07-13 14:11 51°25.214 2°58.04 6.1 284 18.3 101030 76
2009-07-13 14:12 51°25.043 2°57.861 6.7 340 18.3 101030 75
2009-07-13 14:13 51°24.873 2°57.693 5 339 18.3 101030 75
2009-07-13 14:14 51°24.699 2°57.527 6.5 278 18.3 101030 74
2009-07-13 14:15 51°24.523 2°57.357 5.4 341 18.4 101030 74
2009-07-13 14:16 51°24.349 2°57.196 5.1 277 18.4 101030 74
2009-07-13 14:17 51°24.179 2°57.033 5.5 339 18.4 101020 74
2009-07-13 14:18 51°24.005 2°56.866 6.5 282 18.3 101030 74
2009-07-13 14:19 51°23.829 2°56.703 5.6 343 18.3 101030 73
2009-07-13 14:20 51°23.659 2°56.54 4.9 282 18.3 101030 73
2009-07-13 14:21 51°23.493 2°56.381 5.9 278 18.2 101030 74
2009-07-13 14:22 51°23.319 2°56.218 6.1 276 18.1 101020 75
2009-07-13 14:23 51°23.149 2°56.06 5.4 279 18.1 101010 76
2009-07-13 14:24 51°22.98 2°55.902 5.5 345 17.9 101010 76
2009-07-13 14:25 51°22.812 2°55.747 5.9 345 17.8 101010 77
2009-07-13 14:26 51°22.643 2°55.605 5.5 278 17.7 101010 76
2009-07-13 14:27 51°22.475 2°55.467 4.7 346 17.7 101010 76
2009-07-13 14:28 51°22.307 2°55.332 4.9 344 17.7 101010 77
2009-07-13 14:29 51°22.144 2°55.194 4.1 346 17.7 101000 77
2009-07-13 14:30 51°21.979 2°55.046 4.8 341 17.7 101010 77
2009-07-13 14:31 51°21.813 2°54.897 4.2 278 17.8 101000 77
2009-07-13 14:32 51°21.648 2°54.752 4.5 343 18 101000 76
2009-07-13 14:33 51°21.486 2°54.612 4.5 344 18 101000 75
2009-07-13 14:34 51°21.318 2°54.482 3.4 284 17.9 101010 75
2009-07-13 14:35 51°21.142 2°54.366 4.7 346 18 101010 75
2009-07-13 14:36 51°20.97 2°54.253 4.9 284 18 101000 75
2009-07-13 14:37 51°20.8 2°54.141 4.5 346 17.9 101010 74
2009-07-13 14:38 51°20.628 2°54.026 4.3 284 17.8 101010 74
2009-07-13 14:39 51°20.45 2°53.926 3.9 345 17.8 101010 76
2009-07-13 14:40 51°20.274 2°53.839 4.1 346 17.9 101000 77
2009-07-13 14:41 51°20.097 2°53.751 3.2 283 17.8 101000 76
2009-07-13 14:42 51°19.918 2°53.664 3.4 347 17.8 101000 76
2009-07-13 14:43 51°19.736 2°53.583 4.2 278 17.8 101000 77
2009-07-13 14:44 51°19.561 2°53.502 3.9 347 17.8 101000 76
2009-07-13 14:45 51°19.381 2°53.41 4.4 280 17.8 101000 76
2009-07-13 14:46 51°19.208 2°53.298 3.9 278 17.7 100990 75
2009-07-13 14:47 51°19.034 2°53.186 4.2 349 17.8 101000 76
2009-07-13 14:48 51°18.862 2°53.072 5.1 348 17.8 100990 76
2009-07-13 14:49 51°18.692 2°52.962 4.2 345 17.8 100990 75
2009-07-13 14:50 51°18.52 2°52.85 4.7 349 17.7 100990 75
2009-07-13 14:51 51°18.345 2°52.741 4.4 350 17.7 100990 74
2009-07-13 14:52 51°18.176 2°52.629 3.5 347 17.8 100990 76
2009-07-13 14:53 51°18.006 2°52.518 3.1 279 17.8 100990 75
2009-07-13 14:54 51°17.831 2°52.43 3.2 281 17.9 100990 74
2009-07-13 14:55 51°17.654 2°52.353 3 285 18 100980 76
2009-07-13 14:56 51°17.471 2°52.312 3.2 285 18 100990 76
2009-07-13 14:57 51°17.287 2°52.327 3 276 18.1 100990 75
2009-07-13 14:58 51°17.1 2°52.406 2.6 280 18.2 100990 75
2009-07-13 14:59 51°16.923 2°52.532 3.8 279 18.3 100990 75
2009-07-13 15:00 51°16.747 2°52.665 2.8 277 18.3 100990 74
2009-07-13 15:01 51°16.57 2°52.795 3 284 18.4 100990 74
2009-07-13 15:02 51°16.392 2°52.922 3.7 278 18.5 100990 74
2009-07-13 15:03 51°16.223 2°53.052 2.6 276 18.6 100990 73
2009-07-13 15:04 51°16.055 2°53.172 2.9 283 18.6 100990 73
2009-07-13 15:05 51°15.885 2°53.304 1.9 278 18.7 100990 72
2009-07-13 15:06 51°15.717 2°53.439 3.6 282 18.8 100990 73
2009-07-13 15:07 51°15.552 2°53.584 3 277 18.8 100990 73
2009-07-13 15:08 51°15.389 2°53.737 3.6 277 18.9 100990 73
2009-07-13 15:09 51°15.234 2°53.919 5.9 282 18.9 100990 72
2009-07-13 15:10 51°15.095 2°54.129 4.6 279 18.9 100990 73
2009-07-13 15:11 51°14.954 2°54.318 4.4 279 18.9 100980 72
2009-07-13 15:12 51°14.804 2°54.501 4.7 285 18.8 100990 72
2009-07-13 15:13 51°14.653 2°54.68 4.7 277 18.8 100990 73
2009-07-13 15:14 51°14.511 2°54.874 3.9 283 18.8 100990 73
2009-07-13 15:15 51°14.399 2°55.07 4.2 277 18.9 100980 74
2009-07-13 15:16 51°14.29 2°55.232 3.4 278 18.9 100990 74
2009-07-13 15:17 51°14.181 2°55.367 3.1 281 18.9 100990 74
2009-07-13 15:18 51°14.063 2°55.461 1.4 275 18.9 100990 74
2009-07-13 15:19 51°13.939 2°55.55 2 284 19 100990 74
2009-07-13 15:20 51°13.828 2°55.629 2.8 279 19.1 100990 75
2009-07-13 15:21 51°13.743 2°55.738 3.2 283 19.2 100990 74
2009-07-13 15:22 51°13.694 2°55.842 2.8 280 19.3 100990 73
2009-07-13 15:23 51°13.673 2°55.924 3.9 278 19.3 100990 73
2009-07-13 15:24 51°13.664 2°55.957 3.6 81 19.3 100990 72